TimeEDT,TemperatureF,Dew PointF,Humidity,Sea Level PressureIn,VisibilityMPH,Wind Direction,Wind SpeedMPH,Gust SpeedMPH,PrecipitationIn,Events,Conditions,WindDirDegrees,DateUTC
12:15 AM,35.6,23.0,60,30.25,10.0,Calm,Calm,-,N/A,,Overcast,0,2013-03-15 04:15:00
12:35 AM,35.6,21.2,56,30.25,10.0,Calm,Calm,-,N/A,,Overcast,0,2013-03-15 04:35:00
12:55 AM,39.2,17.6,42,30.24,10.0,West,4.6,-,N/A,,Overcast,260,2013-03-15 04:55:00
1:15 AM,39.2,19.4,45,30.24,10.0,West,5.8,-,N/A,,Overcast,270,2013-03-15 05:15:00
1:35 AM,37.4,19.4,48,30.23,10.0,WSW,3.5,-,N/A,,Overcast,240,2013-03-15 05:35:00
1:55 AM,37.4,19.4,48,30.22,10.0,WSW,3.5,-,N/A,,Overcast,240,2013-03-15 05:55:00
2:15 AM,35.6,21.2,56,30.22,10.0,Calm,Calm,-,N/A,,Overcast,0,2013-03-15 06:15:00
2:35 AM,35.6,23.0,60,30.22,10.0,Calm,Calm,-,N/A,,Mostly Cloudy,0,2013-03-15 06:35:00
2:55 AM,33.8,23.0,65,30.21,10.0,Calm,Calm,-,N/A,,Clear,0,2013-03-15 06:55:00
3:15 AM,32.0,24.8,75,30.21,10.0,Calm,Calm,-,N/A,,Clear,0,2013-03-15 07:15:00
3:55 AM,30.2,23.0,75,30.21,10.0,Calm,Calm,-,N/A,,Mostly Cloudy,0,2013-03-15 07:55:00
4:15 AM,30.2,23.0,75,30.19,10.0,Calm,Calm,-,N/A,,Unknown,0,2013-03-15 08:15:00
4:55 AM,28.4,23.0,80,30.18,10.0,NNE,3.5,-,N/A,,Scattered Clouds,30,2013-03-15 08:55:00
5:15 AM,28.4,23.0,80,30.18,10.0,Calm,Calm,-,N/A,,Clear,0,2013-03-15 09:15:00
5:35 AM,28.4,24.8,86,30.17,10.0,Calm,Calm,-,N/A,,Clear,0,2013-03-15 09:35:00
5:55 AM,26.6,23.0,86,30.18,10.0,Calm,Calm,-,N/A,,Clear,0,2013-03-15 09:55:00
6:15 AM,26.6,24.8,93,30.19,10.0,Calm,Calm,-,N/A,,Clear,0,2013-03-15 10:15:00
6:35 AM,26.6,23.0,86,30.19,10.0,Calm,Calm,-,N/A,,Partly Cloudy,0,2013-03-15 10:35:00
6:55 AM,26.6,23.0,86,30.18,10.0,Calm,Calm,-,N/A,,Clear,0,2013-03-15 10:55:00
7:15 AM,24.8,23.0,93,30.18,10.0,Calm,Calm,-,N/A,,Partly Cloudy,0,2013-03-15 11:15:00
7:35 AM,26.6,23.0,86,30.18,10.0,Calm,Calm,-,N/A,,Clear,0,2013-03-15 11:35:00
7:55 AM,24.8,23.0,93,30.18,10.0,Calm,Calm,-,N/A,,Clear,0,2013-03-15 11:55:00
8:15 AM,26.6,23.0,86,30.18,10.0,Calm,Calm,-,N/A,,Clear,0,2013-03-15 12:15:00
8:55 AM,30.2,24.8,80,30.17,10.0,Calm,Calm,-,N/A,,Clear,0,2013-03-15 12:55:00
9:15 AM,32.0,24.8,75,30.16,10.0,Calm,Calm,-,N/A,,Clear,0,2013-03-15 13:15:00
9:35 AM,33.8,24.8,70,30.16,10.0,Calm,Calm,-,N/A,,Clear,0,2013-03-15 13:35:00
9:55 AM,35.6,24.8,65,30.15,10.0,Calm,Calm,-,N/A,,Clear,0,2013-03-15 13:55:00
10:15 AM,39.2,24.8,56,30.15,10.0,Calm,Calm,-,N/A,,Clear,0,2013-03-15 14:15:00
10:35 AM,41.0,26.6,57,30.14,10.0,Calm,Calm,-,N/A,,Clear,0,2013-03-15 14:35:00
11:55 AM,48.2,28.4,46,30.10,10.0,WSW,10.4,-,N/A,,Clear,240,2013-03-15 15:55:00
12:15 PM,48.2,28.4,46,30.10,10.0,WSW,8.1,-,N/A,,Clear,240,2013-03-15 16:15:00
12:35 PM,48.2,28.4,46,30.09,10.0,SW,8.1,-,N/A,,Clear,230,2013-03-15 16:35:00
12:55 PM,50.0,30.2,47,30.08,10.0,SW,9.2,-,N/A,,Clear,230,2013-03-15 16:55:00
1:15 PM,51.8,30.2,44,30.07,10.0,SW,8.1,-,N/A,,Clear,220,2013-03-15 17:15:00
1:35 PM,53.6,32.0,44,30.06,10.0,West,6.9,-,N/A,,Clear,260,2013-03-15 17:35:00
1:55 PM,53.6,32.0,44,30.05,10.0,WSW,10.4,-,N/A,,Clear,250,2013-03-15 17:55:00
2:15 PM,55.4,32.0,41,30.04,10.0,SW,6.9,-,N/A,,Clear,230,2013-03-15 18:15:00
2:35 PM,55.4,32.0,41,30.03,10.0,WSW,11.5,-,N/A,,Clear,240,2013-03-15 18:35:00
2:55 PM,57.2,32.0,38,30.02,10.0,WSW,6.9,-,N/A,,Clear,240,2013-03-15 18:55:00
3:15 PM,57.2,32.0,38,30.00,10.0,WSW,8.1,-,N/A,,Clear,250,2013-03-15 19:15:00
3:35 PM,59.0,32.0,36,29.99,10.0,WSW,10.4,-,N/A,,Clear,250,2013-03-15 19:35:00
3:55 PM,59.0,33.8,39,29.98,10.0,SW,9.2,-,N/A,,Clear,230,2013-03-15 19:55:00
4:15 PM,62.6,33.8,34,29.97,10.0,WSW,8.1,16.1,N/A,,Clear,240,2013-03-15 20:15:00
4:35 PM,62.6,33.8,34,29.97,10.0,WSW,12.7,-,N/A,,Clear,240,2013-03-15 20:35:00
4:55 PM,62.6,33.8,34,29.96,10.0,WSW,12.7,-,N/A,,Clear,240,2013-03-15 20:55:00
5:15 PM,62.6,35.6,37,29.95,10.0,SW,11.5,-,N/A,,Clear,230,2013-03-15 21:15:00
5:35 PM,62.6,35.6,37,29.95,10.0,WSW,9.2,-,N/A,,Clear,240,2013-03-15 21:35:00
5:55 PM,62.6,35.6,37,29.94,10.0,WSW,10.4,-,N/A,,Clear,250,2013-03-15 21:55:00
6:15 PM,62.6,35.6,37,29.94,10.0,WSW,9.2,-,N/A,,Clear,250,2013-03-15 22:15:00
6:35 PM,62.6,35.6,37,29.94,10.0,West,6.9,-,N/A,,Clear,260,2013-03-15 22:35:00
6:55 PM,62.6,37.4,39,29.94,10.0,WSW,5.8,-,N/A,,Clear,240,2013-03-15 22:55:00
7:15 PM,60.8,37.4,42,29.94,10.0,SW,4.6,-,N/A,,Clear,230,2013-03-15 23:15:00
7:35 PM,59.0,37.4,45,29.94,10.0,WSW,3.5,-,N/A,,Clear,250,2013-03-15 23:35:00
7:55 PM,55.4,39.2,54,29.94,10.0,Calm,Calm,-,N/A,,Clear,0,2013-03-15 23:55:00
8:15 PM,53.6,39.2,58,29.94,10.0,Calm,Calm,-,N/A,,Partly Cloudy,0,2013-03-16 00:15:00
8:35 PM,50.0,37.4,62,29.94,10.0,Calm,Calm,-,N/A,,Scattered Clouds,0,2013-03-16 00:35:00
8:55 PM,48.2,39.2,71,29.94,10.0,Calm,Calm,-,N/A,,Scattered Clouds,0,2013-03-16 00:55:00
9:15 PM,46.4,39.2,76,29.94,10.0,Calm,Calm,-,N/A,,Mostly Cloudy,0,2013-03-16 01:15:00
9:35 PM,46.4,39.2,76,29.94,10.0,Calm,Calm,-,N/A,,Mostly Cloudy,0,2013-03-16 01:35:00
9:55 PM,44.6,39.2,81,29.94,10.0,Calm,Calm,-,N/A,,Mostly Cloudy,0,2013-03-16 01:55:00
10:15 PM,46.4,39.2,76,29.93,10.0,Calm,Calm,-,N/A,,Overcast,0,2013-03-16 02:15:00
10:35 PM,46.4,39.2,76,29.93,10.0,Calm,Calm,-,N/A,,Overcast,0,2013-03-16 02:35:00
10:55 PM,44.6,41.0,87,29.93,10.0,Calm,Calm,-,N/A,Rain,Light Rain,0,2013-03-16 02:55:00
11:15 PM,44.6,41.0,87,29.93,10.0,Calm,Calm,-,N/A,,Mostly Cloudy,0,2013-03-16 03:15:00
11:35 PM,44.6,41.0,87,29.92,10.0,Calm,Calm,-,N/A,,Mostly Cloudy,0,2013-03-16 03:35:00
11:55 PM,44.6,42.8,93,29.91,10.0,SSW,4.6,-,N/A,,Overcast,200,2013-03-16 03:55:00